Location: Cuzcurrita-R�o Tir�n
(42.5415°N, 2.9642°W)
Time: 01:04:29
(UTC+00:00)

ERS-2 - Pass Details

Date: 17 January 2021
Orbit: 492 x 497 km, 98.6° (Epoch: 08 March)

Event Time Altitude Azimuth Distance (km) Brightness Sun altitude
Exits shadow 18:46:31 14° 8° (N) 1,463 4.3 -18.1°
Maximum altitude 18:49:35 71° 286° (WNW) 527 2.3 -18.7°
Drops below altitude 10° 18:53:11 10° 202° (SSW) 1,682 5.2 -19.3°
Sets 18:55:14 0° 200° (SSW) 2,558 6.2 -19.7°
